Charlottesville, VA

8:26 PM EDT on October 23, 2017 (GMT -0400)
Charlottesville-Albemarle

Weather History for KCHO - January, 2014

Change the Weather History Date:

Monday, January 6, 2014

  Actual Average Record
Temperature  
Mean Temperature 29 °F 35 °F  
Max Temperature 48 °F 44 °F 71 °F (1950)
Min Temperature 9 °F 26 °F 2 °F (1912)
Degree Days  
Heating Degree Days 36 30  
Month to date heating degree days 208 180  
Since 1 July heating degree days 1873 1916  
Cooling Degree Days 0 0  
Month to date cooling degree days 0 0  
Year to date cooling degree days 0 0  
Moisture  
Dew Point 22 °F    
Average Humidity 65    
Maximum Humidity 100    
Minimum Humidity 30    
Precipitation  
Precipitation 0.01 in 0.10 in 0.54 in (2002)
Month to date precipitation 0.76 0.55  
Year to date precipitation 0.76 0.55  
Sea Level Pressure  
Sea Level Pressure 29.72 in    
Wind  
Wind Speed 10 mph (WSW)    
Max Wind Speed 18 mph    
Max Gust Speed 29 mph    
Visibility 8 miles    
Events Fog , Rain    
T = Trace of Precipitation, MM = Missing Value Source: NWS Daily Summary

Daily Weather History Graph

Daily Weather History Graph

Search for Another Location

Airport or City:

Trip Planner

Search our weather history database for the weather conditions in past years. The results will help you decide how hot, cold, wet, or windy it might be!

Date:

Astronomy

Jan. 06, 2014 Rise Set
Actual Time 7:30 AM EST 5:09 PM EST
Civil Twilight 7:01 AM EST 5:38 PM EST
Nautical Twilight 6:28 AM EST 6:11 PM EST
Astronomical Twilight 5:56 AM EST 6:43 PM EST
Moon 10:50 AM EST (1/6) 11:34 PM EST (1/6)
Length of Visible Light 10h 37m
Length of Day
9h 38m
Waxing Crescent, 34% of the Moon is Illuminated
Jan 6
Waxing Crescent
Jan 7
First Quarter
Jan 15
Full
Jan 24
Last Quarter
Jan 30
New

Hourly Weather History & Observations

Time (EST) Temp. Windchill Dew Point Humidity Pressure Visibility Wind Dir Wind Speed Gust Speed Precip Events Conditions
12:23 AM 37.9 °F 32.1 °F 37.9 °F 100% 29.67 in 1.2 mi South 8.1 mph - N/A   Overcast
12:41 AM 37.9 °F 30.9 °F 37.0 °F 97% 29.67 in 0.5 mi South 10.4 mph - N/A Fog Fog
12:53 AM 37.9 °F 31.5 °F 37.0 °F 97% 29.66 in 0.5 mi South 9.2 mph - N/A Fog Fog
1:06 AM 37.9 °F 30.0 °F 37.0 °F 97% 29.64 in 1.2 mi South 12.7 mph - N/A   Overcast
1:24 AM 37.9 °F 29.6 °F 37.0 °F 97% 29.64 in 3.0 mi South 13.8 mph - N/A   Overcast
1:53 AM 39.0 °F 30.3 °F 37.9 °F 96% 29.63 in 8.0 mi South 16.1 mph - N/A   Overcast
2:00 AM 39.0 °F 31.0 °F 37.9 °F 96% 29.62 in 8.0 mi South 13.8 mph - N/A   Overcast
2:31 AM 39.0 °F 29.9 °F 37.9 °F 96% 29.60 in 9.0 mi South 17.3 mph - 0.01 in Rain Light Rain
2:53 AM 39.0 °F 31.0 °F 37.9 °F 96% 29.60 in 9.0 mi South 13.8 mph - 0.01 in Rain Light Rain
3:53 AM 41.0 °F 33.5 °F 39.0 °F 93% 29.56 in 10.0 mi South 13.8 mph - 0.00 in   Overcast
4:27 AM 41.0 °F 33.9 °F 39.9 °F 96% 29.53 in 8.0 mi SSW 12.7 mph - N/A   Overcast
4:53 AM 42.1 °F 34.5 °F 41.0 °F 96% 29.53 in 8.0 mi South 15.0 mph - 0.00 in Rain Light Rain
5:33 AM 44.1 °F 38.1 °F 42.1 °F 93% 29.54 in 10.0 mi South 11.5 mph - 0.00 in Rain Light Rain
5:53 AM 46.0 °F 41.4 °F 43.0 °F 89% 29.54 in 10.0 mi SSW 9.2 mph - 0.00 in   Overcast
6:53 AM 46.9 °F - 37.0 °F 68% 29.56 in 10.0 mi Variable 3.5 mph - N/A   Overcast
7:53 AM 46.0 °F 40.6 °F 30.9 °F 56% 29.60 in 10.0 mi WSW 11.5 mph 24.2 mph N/A   Overcast
8:53 AM 44.1 °F 40.8 °F 28.9 °F 55% 29.64 in 10.0 mi Variable 5.8 mph - N/A   Overcast
9:53 AM 42.1 °F 36.1 °F 25.0 °F 51% 29.68 in 10.0 mi NW 10.4 mph 20.7 mph N/A   Overcast
10:53 AM 39.9 °F 32.5 °F 21.0 °F 47% 29.69 in 10.0 mi NW 12.7 mph 24.2 mph N/A   Clear
11:53 AM 39.0 °F 30.6 °F 18.0 °F 43% 29.68 in 10.0 mi WNW 15.0 mph 27.6 mph N/A   Clear
12:53 PM 37.9 °F 29.6 °F 16.0 °F 41% 29.69 in 10.0 mi NW 13.8 mph 23.0 mph N/A   Clear
1:53 PM 37.9 °F 30.9 °F 15.1 °F 39% 29.69 in 10.0 mi NW 10.4 mph - N/A   Partly Cloudy
2:53 PM 37.0 °F 29.8 °F 12.9 °F 37% 29.71 in 10.0 mi West 10.4 mph 20.7 mph N/A   Scattered Clouds
3:53 PM 34.0 °F 26.0 °F 12.0 °F 40% 29.77 in 10.0 mi NW 10.4 mph 19.6 mph N/A   Mostly Cloudy
4:53 PM 30.9 °F 23.5 °F 9.0 °F 40% 29.80 in 10.0 mi West 8.1 mph 17.3 mph N/A   Scattered Clouds
5:53 PM 27.0 °F 18.7 °F 5.0 °F 39% 29.84 in 10.0 mi West 8.1 mph - N/A   Clear
6:53 PM 21.9 °F 11.7 °F -0.9 °F 37% 29.92 in 10.0 mi WNW 9.2 mph 19.6 mph N/A   Clear
7:53 PM 18.0 °F 8.7 °F -7.1 °F 33% 29.98 in 10.0 mi WNW 6.9 mph 18.4 mph N/A   Clear
8:53 PM 15.1 °F 6.4 °F -11.0 °F 31% 30.02 in 10.0 mi NW 5.8 mph 18.4 mph N/A   Clear
9:53 PM 12.9 °F 1.6 °F -11.9 °F 32% 30.06 in 10.0 mi WNW 8.1 mph 19.6 mph N/A   Clear
10:53 PM 10.9 °F -1.8 °F -15.0 °F 30% 30.09 in 10.0 mi WNW 9.2 mph 18.4 mph N/A   Clear
11:53 PM 9.0 °F -3.2 °F -11.0 °F 40% 30.11 in 10.0 mi WNW 8.1 mph - N/A   Clear